Regional Weather Roundup
Issued by NWS State College, PA

Home | Current Version | Previous Version | Text Only | Print | Product List | Glossary On
Versions: 1 2 3 4 5 6 7 8 9 10 11 12 13 14 15 16 17 18 19 20 21 22 23 24 25 26 27 28 29 30 31 32 33 34 35 36 37 38 39 40 41 42 43 44 45 46 47 48 49 50
000
ASUS41 KCTP 301303
RWRCTP

REGIONAL WEATHER ROUNDUP
NATIONAL WEATHER SERVICE STATE COLLEGE PA
900 AM EDT MON MAR 30 2015

Note: "fair" indicates few or no clouds below 12,000 feet with no
significant weather and/or obstructions to visibility.

* = STATION THAT DOES NOT REPORT PRECIPITATION /E.G. RAIN...SNOW...ETC/
    THUNDER OR FOG.

PAZ002>004-007>009-013>016-020>023-029>032-301400-
WESTERN PENNSYLVANIA

CITY           SKY/WX    TMP DP  RH WIND       PRES   REMARKS
ERIE           CLOUDY    40  29  64 W15G25    29.83R
MEADVILLE      CLOUDY    37  29  72 W9        29.83R
FRANKLIN*      CLOUDY    37  28  70 W13G22    29.86R
NEW CASTLE     PTSUNNY   40  31  70 W8        29.90R
BEAVER COUNTY  CLOUDY    41  30  65 W9G22     29.89R
BUTLER*        CLOUDY    39  32  75 W9        29.90R
PITTSBURGH INT PTSUNNY   41  30  65 W16G24    29.91R
PITTSBURGH     CLOUDY    41  27  57 W17G25    29.90R
INDIANA*       CLOUDY    39  37  93 NW9       29.90R
LATROBE        CLOUDY    39  37  93 MISG      29.92R
WASHINGTON CO* CLOUDY    43  27  52 W10       29.95R
$$

PAZ004>006-010>012-017>019-024>028-033>037-041-042-045-046-049>053-301400-
CENTRAL PENNSYLVANIA

CITY           SKY/WX    TMP DP  RH WIND       PRES   REMARKS
BRADFORD       MIX PCPN  34  28  79 W17G29    29.74R
DUBOIS         CLOUDY    38  32  79 W18G24    29.80R
CLEARFIELD     CLOUDY    38  31  76 W13G28    29.81R
JOHNSTOWN      CLOUDY    37  33  85 W18G28    29.82R
ALTOONA        CLOUDY    42  31  64 NW20G30   29.82R
STATE COLLEGE  CLOUDY    37  36  93 W12       29.81R
WILLIAMSPORT   CLOUDY    39  31  72 VRB3      29.80F
SELINSGROVE    CLOUDY    39  26  59 SW5       29.84S
FT INDIANTOWN  CLOUDY    36  27  69 CALM      29.87F
CAPITAL CITY   CLOUDY    41  20  43 W5        29.87S
HARRISBURG     CLOUDY    41  22  46 SW9       29.87S
YORK           CLOUDY    42  21  43 SW10G18   29.87S
$$

PAZ038>040-043-044-047-048-054-055-060>062-067>071-301400-
EASTERN PENNSYLVANIA

CITY           SKY/WX    TMP DP  RH WIND       PRES   REMARKS
SCRANTON       CLOUDY    37  25  61 SW9G20    29.80F
MOUNT POCONO   CLOUDY    30  24  78 SW9       29.78F
ALLENTOWN      CLOUDY    38  27  64 SW9       29.87F
QUAKERTOWN*    CLOUDY    37  28  70 SW10      29.88F
READING        CLOUDY    40  25  55 CALM      29.87F
LANCASTER      CLOUDY    40  24  53 SW7       29.87F
COATESVILLE    CLOUDY    37  30  75 SW7       29.88F
POTTSTOWN      CLOUDY    38  28  67 S7        29.89F
BLUE BELL      CLOUDY    39  32  75 SW9       29.88F
DOYLESTOWN     CLOUDY    35  30  82 SW8       29.88F
WILLOW GROVE   NOT AVBL
NORTH PHILA    CLOUDY    39  31  72 SW10      29.91F
PHILADELPHIA   CLOUDY    38  32  79 S15       29.92F
$$



USA.gov is the U.S. government's official web portal to all federal, state and local government web resources and services.